TimeCDT,TemperatureF,Dew PointF,Humidity,Sea Level PressureIn,VisibilityMPH,Wind Direction,Wind SpeedMPH,Gust SpeedMPH,PrecipitationIn,Events,Conditions,WindDirDegrees,DateUTC
12:02 AM,71.6,66.2,83,29.95,10.0,South,9.2,-,N/A,,Mostly Cloudy,170,2013-05-17 05:02:00
12:27 AM,71.6,66.2,83,29.96,10.0,South,6.9,-,N/A,,Overcast,170,2013-05-17 05:27:00
12:53 AM,72.0,66.9,84,29.93,10.0,South,5.8,-,N/A,,Overcast,170,2013-05-17 05:53:00
1:50 AM,71.6,68.0,88,29.95,10.0,South,6.9,-,N/A,,Mostly Cloudy,180,2013-05-17 06:50:00
1:53 AM,72.0,68.0,87,29.92,10.0,South,6.9,-,N/A,,Mostly Cloudy,180,2013-05-17 06:53:00
2:17 AM,71.6,68.0,88,29.95,9.0,SSW,8.1,-,0.00,Rain,Light Rain,200,2013-05-17 07:17:00
2:25 AM,71.6,68.0,88,29.95,10.0,South,12.7,18.4,0.00,Rain,Light Rain,190,2013-05-17 07:25:00
2:31 AM,71.6,68.0,88,29.94,10.0,South,12.7,-,0.00,,Overcast,180,2013-05-17 07:31:00
2:53 AM,71.1,68.0,90,29.92,10.0,South,9.2,-,0.00,,Overcast,170,2013-05-17 07:53:00
3:53 AM,71.1,68.0,90,29.92,10.0,South,8.1,-,N/A,,Overcast,180,2013-05-17 08:53:00
4:53 AM,71.1,68.0,90,29.92,10.0,South,11.5,-,N/A,,Overcast,180,2013-05-17 09:53:00
5:53 AM,71.1,66.9,87,29.93,10.0,South,11.5,-,N/A,,Overcast,190,2013-05-17 10:53:00
7:53 AM,72.0,68.0,87,29.96,9.0,South,11.5,-,N/A,,Overcast,170,2013-05-17 12:53:00
8:31 AM,73.4,68.0,83,29.99,9.0,South,8.1,-,N/A,,Overcast,180,2013-05-17 13:31:00
8:53 AM,73.0,68.0,84,29.98,10.0,South,6.9,17.3,N/A,,Overcast,180,2013-05-17 13:53:00
9:53 AM,75.9,69.1,79,29.97,10.0,South,11.5,-,N/A,,Overcast,190,2013-05-17 14:53:00
10:53 AM,77.0,68.0,74,29.98,10.0,South,12.7,20.7,N/A,,Overcast,190,2013-05-17 15:53:00
11:21 AM,77.0,68.0,74,30.01,10.0,SSW,11.5,-,N/A,,Overcast,210,2013-05-17 16:21:00
11:53 AM,78.1,68.0,71,29.99,10.0,SW,10.4,20.7,N/A,,Overcast,220,2013-05-17 16:53:00
12:53 PM,81.0,69.1,67,29.97,10.0,SSW,6.9,-,N/A,,Mostly Cloudy,200,2013-05-17 17:53:00
2:53 PM,82.9,69.1,63,29.95,10.0,SW,11.5,-,N/A,,Mostly Cloudy,220,2013-05-17 19:53:00
3:53 PM,82.9,69.1,63,29.93,10.0,SSW,10.4,-,N/A,,Mostly Cloudy,210,2013-05-17 20:53:00
4:53 PM,82.0,69.1,65,29.91,10.0,South,4.6,-,N/A,,Overcast,190,2013-05-17 21:53:00
5:53 PM,82.9,69.1,63,29.91,10.0,SW,9.2,-,N/A,,Mostly Cloudy,220,2013-05-17 22:53:00
6:53 PM,82.0,70.0,67,29.91,10.0,South,5.8,-,N/A,,Mostly Cloudy,180,2013-05-17 23:53:00
7:53 PM,80.1,70.0,71,29.92,10.0,South,4.6,-,N/A,,Overcast,170,2013-05-18 00:53:00
8:53 PM,79.0,71.1,77,29.94,10.0,South,3.5,-,N/A,,Overcast,170,2013-05-18 01:53:00
9:53 PM,79.0,71.1,77,29.95,10.0,South,8.1,-,N/A,,Overcast,170,2013-05-18 02:53:00
10:53 PM,77.0,70.0,79,29.97,10.0,South,6.9,-,N/A,,Mostly Cloudy,180,2013-05-18 03:53:00
11:53 PM,75.9,69.1,79,29.96,10.0,South,9.2,-,N/A,,Clear,190,2013-05-18 04:53:00